Location: Asheville, NC
(35.6000°N, 82.5500°W)
Time: 02:29:45
(UTC-04:00)

YUBILEINY - Pass Details

Date: 14 March 2018
Orbit: 1479 x 1508 km, 82.5° (Epoch: 20 June)

Event Time Altitude Azimuth Distance (km) Brightness Sun altitude
Rises 05:55:31 0° 355° (N) 4,615 ? -22.4°
Reaches altitude 10° 05:58:26 10° 358° (N) 3,635 ? -21.8°
Maximum altitude 06:07:09 70° 81° (E) 1,577 ? -20.1°
Drops below altitude 10° 06:15:53 10° 165° (SSE) 3,640 ? -18.3°
Sets 06:18:47 0° 167° (SSE) 4,621 ? -17.8°
